Overview Statistics Trail Chart Weather Telemetry Raw packets
 

This is the latest recevied weather packets stored in our database for station/object KO4DYK. If no packets are shown the sender has not sent any weather packets the latest 10 day(s).

<< 77 78 79 80 81 82 83 >>
Time Temp. Humidity Pressure Rain* Wind** Luminosity Snow
1788100724 28.89° C 80% 1021.1 hPa 0 mm - 435 W/m² -
1788100424 28.33° C 80% 1021.2 hPa 0 mm - 416 W/m² -
1788100123 28.33° C 81% 1021.1 hPa 0 mm - 378 W/m² -
1788099819 28.33° C 82% 1021.2 hPa 0 mm - 345 W/m² -
1788099513 27.78° C 83% 1021.2 hPa 0 mm - 319 W/m² -
1788099209 27.22° C 84% 1021.1 hPa 0 mm - 289 W/m² -
1788098904 27.22° C 84% 1021.3 hPa 0 mm - 263 W/m² -
1788098599 26.67° C 86% 1021.2 hPa 0 mm - 284 W/m² -
1788098293 26.67° C 86% 1021.4 hPa 0 mm - 246 W/m² -
1788097989 26.11° C 87% 1021.2 hPa 0 mm - 223 W/m² -
1788097684 26.11° C 88% 1021.1 hPa 0 mm - 232 W/m² -
1788097384 25.56° C 90% 1021.2 hPa 0 mm - 232 W/m² -
1788097080 25° C 92% 1021.2 hPa 0 mm - 201 W/m² -
1788096775 24.44° C 94% 1021.1 hPa 0 mm - 186 W/m² -
1788096471 23.89° C 97% 1021.3 hPa 0 mm - 117 W/m² -
1788096167 23.33° C 99% 1021.2 hPa 0 mm - 95 W/m² -
1788095865 22.22° C 99% 1021.2 hPa 0 mm - 83 W/m² -
1788095560 22.22° C 99% 1021.2 hPa 0 mm - 63 W/m² -
1788095256 21.67° C 99% 1021.1 hPa 0 mm - 55 W/m² -
1788094950 21.11° C 99% 1021 hPa 0 mm - 52 W/m² -
1788094650 21.11° C 99% 1021.1 hPa 0 mm - 48 W/m² -
1788094345 20.56° C 99% 1021.1 hPa 0 mm - 48 W/m² -
1788094042 20° C 99% 1021 hPa 0 mm - 45 W/m² -
1788093738 20° C 99% 1021.1 hPa 0 mm - 42 W/m² -
1788093435 20° C 99% 1020.9 hPa 0 mm - 40 W/m² -

* Rain latest hour (hover to see other rain measurements)
** Current wind speed in m/s (hover to see current wind gust speed)